C6050 KFMH-KFMH

Flight info

Callsign C6050
Flight time 0h 9m
Altitude 500
Route KFMH KFMH
Aircraft H60/M-SDFGRY/C

Departure

Time 2026-04-25 04:24
Airport Cape Cod Coast Guard Air Station (KFMH)

Arrival

Time 2026-04-25 04:34
Airport Cape Cod Coast Guard Air Station (KFMH)
Time Latitude Longitude Altitude Speed Heading
2026-04-25 03:08 41.66476 -70.52147 142 ft 0 kts 128°
2026-04-25 03:22 41.66468 -70.52132 142 ft 5 kts 123°
2026-04-25 03:22 41.66448 -70.52071 142 ft 11 kts 88°
2026-04-25 03:22 41.66457 -70.51924 140 ft 19 kts 84°
2026-04-25 03:23 41.66470 -70.51749 138 ft 18 kts 84°
2026-04-25 03:23 41.66484 -70.51608 137 ft 9 kts 83°
2026-04-25 03:23 41.66486 -70.51585 137 ft 2 kts 83°
2026-04-25 03:23 41.66487 -70.51553 136 ft 2 kts 178°
2026-04-25 03:24 41.66485 -70.51553 136 ft 0 kts 208°
2026-04-25 03:25 41.66486 -70.51553 149 ft 1 kts 198°
2026-04-25 03:25 41.66470 -70.51562 166 ft 16 kts 206°
2026-04-25 03:26 41.66196 -70.51802 345 ft 74 kts 207°
2026-04-25 03:26 41.65698 -70.52255 490 ft 89 kts 218°
2026-04-25 03:26 41.65193 -70.52719 500 ft 86 kts 197°
2026-04-25 03:26 41.64778 -70.52456 466 ft 70 kts 86°
2026-04-25 03:27 41.64822 -70.51793 444 ft 74 kts 76°
2026-04-25 03:27 41.65075 -70.51101 455 ft 94 kts 60°
2026-04-25 03:27 41.65460 -70.50523 502 ft 75 kts 28°
2026-04-25 03:27 41.65744 -70.50572 397 ft 26 kts 252°
2026-04-25 03:28 41.65672 -70.50674 312 ft 11 kts 216°
2026-04-25 03:28 41.65605 -70.50742 210 ft 13 kts 216°
2026-04-25 03:28 41.65570 -70.50778 157 ft 2 kts 216°
2026-04-25 03:28 41.65569 -70.50785 198 ft 1 kts 216°
2026-04-25 03:29 41.65538 -70.50809 380 ft 18 kts 215°
2026-04-25 03:29 41.65407 -70.50898 351 ft 30 kts 154°
2026-04-25 03:29 41.65358 -70.50547 376 ft 50 kts 34°
2026-04-25 03:29 41.65533 -70.50824 379 ft 75 kts 290°
2026-04-25 03:30 41.65644 -70.51726 534 ft 110 kts 284°
2026-04-25 03:30 41.65929 -70.52525 297 ft 81 kts 313°
2026-04-25 03:30 41.66276 -70.52805 233 ft 29 kts
2026-04-25 03:30 41.66386 -70.52780 200 ft 8 kts 72°
2026-04-25 03:31 41.66398 -70.52741 160 ft 3 kts 77°
2026-04-25 03:31 41.66398 -70.52735 148 ft 0 kts 74°
2026-04-25 03:31 41.66398 -70.52697 148 ft 7 kts 115°
2026-04-25 03:31 41.66389 -70.52643 148 ft 5 kts 86°
2026-04-25 03:32 41.66390 -70.52636 148 ft 0 kts 86°
2026-04-25 03:38 41.66402 -70.52591 148 ft 10 kts 67°
2026-04-25 03:39 41.66398 -70.52552 147 ft 7 kts 279°
2026-04-25 03:39 41.66401 -70.52608 148 ft 9 kts 272°
2026-04-25 03:39 41.66403 -70.52687 148 ft 8 kts 268°
2026-04-25 03:39 41.66399 -70.52734 148 ft 0 kts 187°
2026-04-25 03:41 41.66098 -70.52610 314 ft 86 kts 126°
2026-04-25 03:41 41.65598 -70.51877 544 ft 117 kts 132°
2026-04-25 03:42 41.65152 -70.51393 573 ft 125 kts 153°
2026-04-25 03:42 41.64306 -70.51334 625 ft 121 kts 192°
2026-04-25 03:42 41.63483 -70.51582 609 ft 121 kts 193°
2026-04-25 03:42 41.62669 -70.51826 609 ft 121 kts 193°
2026-04-25 03:43 41.61847 -70.52070 627 ft 120 kts 193°
2026-04-25 03:43 41.61022 -70.52318 616 ft 122 kts 193°
2026-04-25 03:43 41.60198 -70.52566 618 ft 121 kts 193°
2026-04-25 03:43 41.59373 -70.52813 617 ft 121 kts 193°
2026-04-25 03:44 41.58550 -70.53058 618 ft 121 kts 193°
2026-04-25 03:44 41.57726 -70.53307 631 ft 121 kts 193°
2026-04-25 03:44 41.56914 -70.53592 617 ft 118 kts 201°
2026-04-25 03:44 41.56213 -70.54160 615 ft 126 kts 217°
2026-04-25 03:45 41.55528 -70.54841 617 ft 123 kts 217°
2026-04-25 03:45 41.54850 -70.55522 618 ft 120 kts 219°
2026-04-25 03:45 41.54237 -70.56303 639 ft 122 kts 224°
2026-04-25 03:45 41.53633 -70.57090 618 ft 117 kts 228°
2026-04-25 03:46 41.53122 -70.57965 615 ft 127 kts 232°
2026-04-25 03:46 41.52593 -70.58878 616 ft 123 kts 232°
2026-04-25 03:46 41.52070 -70.59780 612 ft 125 kts 232°
2026-04-25 03:46 41.51539 -70.60692 611 ft 123 kts 232°
2026-04-25 03:47 41.51007 -70.61604 616 ft 127 kts 232°
2026-04-25 03:47 41.50472 -70.62526 614 ft 124 kts 232°
2026-04-25 03:47 41.49941 -70.63445 609 ft 124 kts 232°
2026-04-25 03:47 41.49413 -70.64350 608 ft 124 kts 232°
2026-04-25 03:48 41.48883 -70.65259 613 ft 125 kts 232°
2026-04-25 03:48 41.48347 -70.66181 606 ft 125 kts 232°
2026-04-25 03:48 41.47819 -70.67086 612 ft 124 kts 232°
2026-04-25 03:48 41.47293 -70.67989 611 ft 123 kts 232°
2026-04-25 03:49 41.46773 -70.68880 607 ft 124 kts 232°
2026-04-25 03:49 41.46242 -70.69797 609 ft 122 kts 232°
2026-04-25 03:49 41.45716 -70.70699 612 ft 123 kts 232°
2026-04-25 03:49 41.45189 -70.71604 610 ft 122 kts 232°
2026-04-25 03:50 41.44666 -70.72496 608 ft 123 kts 232°
2026-04-25 03:50 41.44147 -70.73389 609 ft 124 kts 232°
2026-04-25 03:50 41.43621 -70.74294 611 ft 125 kts 232°
2026-04-25 03:50 41.43092 -70.75203 631 ft 124 kts 232°
2026-04-25 03:51 41.42534 -70.76172 437 ft 144 kts 232°
2026-04-25 03:51 41.41969 -70.77395 645 ft 158 kts 250°
2026-04-25 03:51 41.41810 -70.78743 653 ft 142 kts 263°
2026-04-25 03:51 41.41736 -70.79914 426 ft 99 kts 265°
2026-04-25 03:52 41.41692 -70.80577 279 ft 43 kts 263°
2026-04-25 03:52 41.41680 -70.80710 197 ft 0 kts 263°
2026-04-25 03:52 41.41681 -70.80712 99 ft 0 kts 263°
2026-04-25 03:52 41.41681 -70.80714 20 ft 0 kts 263°
2026-04-25 03:53 41.41682 -70.80714 27 ft 0 kts 263°
2026-04-25 03:54 41.41681 -70.80714 27 ft 1 kts 263°
2026-04-25 03:54 41.41682 -70.80714 27 ft 0 kts 263°
2026-04-25 03:54 41.41681 -70.80713 27 ft 0 kts 263°
2026-04-25 03:55 41.41682 -70.80714 27 ft 0 kts 263°
2026-04-25 03:55 41.41681 -70.80713 27 ft 1 kts 263°
2026-04-25 03:55 41.41682 -70.80713 27 ft 0 kts 263°
2026-04-25 03:56 41.41681 -70.80713 27 ft 0 kts 263°
2026-04-25 03:56 41.41682 -70.80713 27 ft 0 kts 263°
2026-04-25 03:56 41.41681 -70.80713 27 ft 1 kts 263°
2026-04-25 03:56 41.41682 -70.80713 27 ft 1 kts 263°
2026-04-25 03:57 41.41681 -70.80713 27 ft 0 kts 263°
2026-04-25 03:57 41.41682 -70.80713 27 ft 0 kts 263°
2026-04-25 03:58 41.41683 -70.80713 27 ft 0 kts 263°
2026-04-25 03:58 41.41682 -70.80713 27 ft 0 kts 263°
2026-04-25 03:58 41.41683 -70.80713 27 ft 0 kts 263°
2026-04-25 03:59 41.41682 -70.80713 27 ft 1 kts 263°
2026-04-25 03:59 41.41683 -70.80713 27 ft 0 kts 263°
2026-04-25 03:59 41.41682 -70.80712 27 ft 0 kts 263°
2026-04-25 04:00 41.41683 -70.80713 27 ft 0 kts 263°
2026-04-25 04:00 41.41682 -70.80712 27 ft 1 kts 263°
2026-04-25 04:00 41.41683 -70.80712 27 ft 1 kts 263°
2026-04-25 04:01 41.41682 -70.80712 27 ft 0 kts 263°
2026-04-25 04:01 41.41683 -70.80712 28 ft 0 kts 263°
2026-04-25 04:01 41.41682 -70.80712 27 ft 0 kts 263°
2026-04-25 04:01 41.41683 -70.80712 28 ft 1 kts 263°
2026-04-25 04:02 41.41682 -70.80712 27 ft 0 kts 263°
2026-04-25 04:02 41.41683 -70.80712 28 ft 0 kts 263°
2026-04-25 04:03 41.41684 -70.80712 28 ft 0 kts 263°
2026-04-25 04:04 41.41683 -70.80712 28 ft 0 kts 263°
2026-04-25 04:04 41.41684 -70.80712 28 ft 0 kts 263°
2026-04-25 04:04 41.41683 -70.80712 28 ft 0 kts 263°
2026-04-25 04:05 41.41684 -70.80712 32 ft 0 kts 263°
2026-04-25 04:05 41.41683 -70.80712 28 ft 1 kts 263°
2026-04-25 04:05 41.41684 -70.80712 32 ft 0 kts 263°
2026-04-25 04:06 41.41683 -70.80712 28 ft 0 kts 263°
2026-04-25 04:06 41.41684 -70.80712 32 ft 0 kts 263°
2026-04-25 04:06 41.41684 -70.80711 28 ft 1 kts 263°
2026-04-25 04:07 41.41685 -70.80712 28 ft 0 kts 263°
2026-04-25 04:07 41.41684 -70.80711 28 ft 0 kts 263°
2026-04-25 04:07 41.41685 -70.80711 28 ft 0 kts 263°
2026-04-25 04:07 41.41684 -70.80711 28 ft 1 kts 263°
2026-04-25 04:08 41.41682 -70.80736 100 ft 15 kts 263°
2026-04-25 04:08 41.41651 -70.81111 231 ft 71 kts 263°
2026-04-25 04:08 41.41397 -70.81888 216 ft 109 kts 239°
2026-04-25 04:09 41.41013 -70.82722 218 ft 103 kts 239°
2026-04-25 04:09 41.40642 -70.83524 218 ft 100 kts 239°
2026-04-25 04:09 41.40280 -70.84302 212 ft 108 kts 239°
2026-04-25 04:09 41.39894 -70.85203 206 ft 116 kts 243°
2026-04-25 04:10 41.39663 -70.86192 211 ft 100 kts 266°
2026-04-25 04:10 41.39754 -70.86901 217 ft 59 kts 284°
2026-04-25 04:10 41.40065 -70.87182 211 ft 50 kts 317°
2026-04-25 04:10 41.40372 -70.87194 213 ft 31 kts 316°
2026-04-25 04:11 41.41200 -70.86648 192 ft 93 kts 51°
2026-04-25 04:11 41.41509 -70.86051 327 ft 77 kts 59°
2026-04-25 04:11 41.41792 -70.85417 361 ft 80 kts 62°
2026-04-25 04:12 41.42269 -70.85187 250 ft 79 kts 11°
2026-04-25 04:12 41.42791 -70.85036 447 ft 68 kts
2026-04-25 04:12 41.43188 -70.85018 329 ft 29 kts
2026-04-25 04:12 41.43223 -70.85011 251 ft 2 kts
2026-04-25 04:13 41.43232 -70.84989 158 ft 3 kts 11°
2026-04-25 04:13 41.43236 -70.84952 169 ft 4 kts 11°
2026-04-25 04:13 41.43244 -70.84961 137 ft 1 kts 12°
2026-04-25 04:13 41.43244 -70.84967 113 ft 1 kts 12°
2026-04-25 04:14 41.43255 -70.84960 113 ft 2 kts 13°
2026-04-25 04:14 41.43256 -70.84956 112 ft 1 kts 13°
2026-04-25 04:14 41.43256 -70.84957 117 ft 1 kts 13°
2026-04-25 04:15 41.43257 -70.84952 116 ft 0 kts 14°
2026-04-25 04:15 41.43258 -70.84958 125 ft 1 kts 14°
2026-04-25 04:15 41.43256 -70.84952 114 ft 0 kts 15°
2026-04-25 04:15 41.43258 -70.84949 111 ft 1 kts 15°
2026-04-25 04:16 41.43263 -70.84942 115 ft 0 kts 17°
2026-04-25 04:16 41.43257 -70.84928 106 ft 1 kts 17°
2026-04-25 04:16 41.43261 -70.84941 118 ft 2 kts 18°
2026-04-25 04:17 41.43263 -70.84948 109 ft 0 kts 18°
2026-04-25 04:17 41.43263 -70.84949 93 ft 0 kts 18°
2026-04-25 04:18 41.43263 -70.84940 107 ft 1 kts 18°
2026-04-25 04:18 41.43257 -70.84923 108 ft 0 kts 18°
2026-04-25 04:18 41.43259 -70.84920 95 ft 1 kts 20°
2026-04-25 04:18 41.43262 -70.84950 133 ft 3 kts 21°
2026-04-25 04:19 41.43266 -70.84958 124 ft 1 kts 22°
2026-04-25 04:19 41.43260 -70.84926 119 ft 5 kts 23°
2026-04-25 04:19 41.43259 -70.84919 99 ft 1 kts 23°
2026-04-25 04:20 41.43259 -70.84931 108 ft 3 kts 24°
2026-04-25 04:20 41.43261 -70.84949 125 ft 0 kts 24°
2026-04-25 04:20 41.43265 -70.84964 130 ft 3 kts 24°
2026-04-25 04:20 41.43266 -70.84956 124 ft 1 kts 25°
2026-04-25 04:21 41.43269 -70.84950 110 ft 4 kts 26°
2026-04-25 04:21 41.43258 -70.84918 97 ft 2 kts 28°
2026-04-25 04:21 41.43258 -70.84919 115 ft 4 kts 28°
2026-04-25 04:21 41.43255 -70.84942 124 ft 2 kts 29°
2026-04-25 04:22 41.43259 -70.84950 134 ft 2 kts 29°
2026-04-25 04:22 41.43259 -70.84949 151 ft 1 kts 28°
2026-04-25 04:22 41.43258 -70.84949 167 ft 1 kts 29°
2026-04-25 04:22 41.43258 -70.84948 178 ft 1 kts 29°
2026-04-25 04:23 41.43250 -70.84958 166 ft 1 kts 28°
2026-04-25 04:23 41.43258 -70.84958 159 ft 1 kts 28°
2026-04-25 04:23 41.43265 -70.84954 151 ft 1 kts 28°
2026-04-25 04:23 41.43277 -70.84942 138 ft 13 kts 57°
2026-04-25 04:24 41.43413 -70.84559 356 ft 74 kts 56°
2026-04-25 04:24 41.43572 -70.83744 677 ft 99 kts 70°
2026-04-25 04:24 41.43807 -70.82816 878 ft 110 kts 68°
2026-04-25 04:24 41.44138 -70.81837 750 ft 123 kts 66°
2026-04-25 04:25 41.44546 -70.80824 724 ft 122 kts 62°
2026-04-25 04:25 41.44966 -70.79868 952 ft 115 kts 61°
2026-04-25 04:25 41.45379 -70.78919 919 ft 119 kts 61°
2026-04-25 04:25 41.45797 -70.77964 883 ft 121 kts 61°
2026-04-25 04:26 41.46213 -70.77007 918 ft 118 kts 61°
2026-04-25 04:26 41.46623 -70.76050 907 ft 119 kts 61°
2026-04-25 04:26 41.47050 -70.75072 894 ft 126 kts 61°
2026-04-25 04:26 41.47499 -70.74075 916 ft 123 kts 59°
2026-04-25 04:27 41.47940 -70.73091 920 ft 124 kts 64°
2026-04-25 04:27 41.48349 -70.72056 907 ft 124 kts 63°
2026-04-25 04:27 41.48747 -70.71151 921 ft 113 kts 58°
2026-04-25 04:27 41.49167 -70.70318 929 ft 102 kts 58°
2026-04-25 04:28 41.49575 -70.69563 917 ft 100 kts 56°
2026-04-25 04:28 41.49975 -70.68831 920 ft 96 kts 56°
2026-04-25 04:28 41.50382 -70.68083 912 ft 103 kts 56°
2026-04-25 04:28 41.50839 -70.67279 901 ft 113 kts 52°
2026-04-25 04:29 41.51353 -70.66486 921 ft 113 kts 51°
2026-04-25 04:29 41.51705 -70.65958 910 ft 118 kts 51°
2026-04-25 04:29 41.52281 -70.65092 927 ft 129 kts 50°
2026-04-25 04:29 41.52931 -70.64262 927 ft 129 kts 45°
2026-04-25 04:30 41.53633 -70.63462 911 ft 137 kts 42°
2026-04-25 04:30 41.54378 -70.62657 922 ft 138 kts 41°
2026-04-25 04:30 41.55119 -70.61884 928 ft 133 kts 40°
2026-04-25 04:30 41.55856 -70.61134 916 ft 137 kts 39°
2026-04-25 04:31 41.56653 -70.60375 913 ft 145 kts 38°
2026-04-25 04:31 41.57488 -70.59567 914 ft 150 kts 38°
2026-04-25 04:31 41.58354 -70.58751 903 ft 154 kts 36°
2026-04-25 04:31 41.59286 -70.58031 899 ft 155 kts 32°
2026-04-25 04:32 41.60214 -70.57334 955 ft 149 kts 31°
2026-04-25 04:32 41.61115 -70.56674 952 ft 146 kts 31°
2026-04-25 04:32 41.61984 -70.56043 932 ft 141 kts 31°
2026-04-25 04:32 41.62838 -70.55459 918 ft 136 kts 29°
2026-04-25 04:33 41.63676 -70.54890 760 ft 139 kts 30°
2026-04-25 04:33 41.64548 -70.54289 731 ft 144 kts 28°
2026-04-25 04:33 41.65374 -70.53689 556 ft 117 kts 31°
2026-04-25 04:33 41.65949 -70.53218 415 ft 79 kts 34°
2026-04-25 04:34 41.66304 -70.52872 229 ft 49 kts 42°
2026-04-25 04:34 41.66404 -70.52708 168 ft 9 kts 84°
2026-04-25 04:34 41.66405 -70.52621 148 ft 13 kts 85°
2026-04-25 04:34 41.66420 -70.52438 146 ft 22 kts 83°
2026-04-25 04:35 41.66436 -70.52243 144 ft 19 kts 77°
2026-04-25 04:35 41.66473 -70.52152 143 ft 1 kts 56°
2026-04-25 04:35 41.66475 -70.52149 142 ft 0 kts 56°